timestamp,wind_dir_avg,wind_spd_avg,wind_spd_max_dir,wind_spd_gust,battery_voltage,lat,long
2022-10-24 00:04:00+00:00,244.0,4.74,243.0,5.34,12.41,47.59359,-54.27349
2022-10-24 00:14:00+00:00,256.0,4.5,243.0,5.06,12.41,47.59359,-54.27349
2022-10-24 00:24:00+00:00,260.0,4.44,252.0,5.25,12.41,47.59359,-54.27349
2022-10-24 00:34:00+00:00,278.0,3.96,272.0,4.44,12.41,47.59359,-54.27349
2022-10-24 00:44:00+00:00,280.0,3.8,282.0,4.6,12.41,47.59359,-54.27349
2022-10-24 00:54:00+00:00,278.0,4.63,278.0,5.18,12.41,47.59359,-54.27349
2022-10-24 01:04:00+00:00,277.0,3.74,287.0,4.52,12.41,47.59359,-54.27349
2022-10-24 01:14:01+00:00,264.0,4.57,267.0,5.16,12.41,47.59359,-54.27349
2022-10-24 01:24:01+00:00,271.0,4.23,274.0,4.79,12.41,47.59359,-54.27349
2022-10-24 01:34:01+00:00,284.0,4.78,272.0,5.54,12.41,47.59359,-54.27349
2022-10-24 01:44:01+00:00,275.0,5.2,274.0,5.8,12.41,47.59359,-54.27349
2022-10-24 01:54:01+00:00,286.0,4.37,297.0,4.95,12.41,47.59359,-54.27349
2022-10-24 02:04:01+00:00,283.0,3.95,295.0,4.71,12.41,47.59359,-54.27349
2022-10-24 02:14:00+00:00,315.0,4.83,320.0,5.82,12.41,47.59359,-54.27349
2022-10-24 02:24:00+00:00,337.0,3.01,326.0,3.64,12.41,47.59359,-54.27349
2022-10-24 02:34:00+00:00,349.0,2.01,343.0,2.63,12.41,47.59359,-54.27349
2022-10-24 02:44:00+00:00,318.0,3.06,316.0,3.4,12.41,47.59359,-54.27349
2022-10-24 02:54:00+00:00,289.0,5.09,300.0,6.3,12.41,47.59359,-54.27349
2022-10-24 03:04:00+00:00,315.0,4.27,314.0,5.09,12.41,47.59359,-54.27349
2022-10-24 03:14:00+00:00,325.0,4.95,334.0,5.53,12.33,47.59359,-54.27349
2022-10-24 03:24:00+00:00,336.0,5.14,335.0,5.92,12.33,47.59359,-54.27349
2022-10-24 03:34:00+00:00,337.0,4.99,340.0,5.8,12.33,47.59359,-54.27349
2022-10-24 03:44:00+00:00,327.0,5.13,324.0,6.09,12.33,47.59359,-54.27349
2022-10-24 03:54:00+00:00,328.0,5.13,327.0,5.95,12.33,47.59359,-54.27349
2022-10-24 04:04:00+00:00,329.0,4.73,329.0,5.42,12.33,47.59359,-54.27349
2022-10-24 04:14:01+00:00,328.0,4.93,327.0,5.75,12.33,47.59359,-54.27349
2022-10-24 04:24:01+00:00,325.0,5.69,324.0,6.27,12.33,47.59359,-54.27349
2022-10-24 04:34:01+00:00,338.0,4.48,340.0,5.63,12.33,47.59359,-54.27349
2022-10-24 04:44:01+00:00,328.0,4.48,328.0,4.92,12.33,47.59359,-54.27349
2022-10-24 04:54:01+00:00,313.0,4.02,315.0,4.67,12.33,47.59359,-54.27349
2022-10-24 05:04:01+00:00,319.0,4.68,336.0,5.81,12.33,47.59359,-54.27349
2022-10-24 05:14:00+00:00,319.0,5.09,319.0,5.92,12.33,47.59359,-54.27349
2022-10-24 05:24:00+00:00,312.0,4.65,313.0,5.21,12.33,47.59359,-54.27349
2022-10-24 05:34:00+00:00,314.0,4.87,320.0,5.73,12.33,47.59359,-54.27349
2022-10-24 05:44:00+00:00,315.0,4.28,309.0,4.89,12.33,47.59359,-54.27349
2022-10-24 05:54:00+00:00,288.0,3.38,292.0,3.84,12.33,47.59359,-54.27349
2022-10-24 06:04:00+00:00,288.0,4.47,290.0,4.9,12.33,47.59359,-54.27349
2022-10-24 06:14:00+00:00,300.0,4.22,299.0,4.73,12.33,47.59359,-54.27349
2022-10-24 06:24:00+00:00,304.0,4.0,307.0,4.42,12.33,47.59359,-54.27349
2022-10-24 06:34:00+00:00,306.0,3.07,309.0,3.49,12.33,47.59359,-54.27349
2022-10-24 06:44:00+00:00,310.0,3.46,311.0,3.92,12.33,47.59359,-54.27349
2022-10-24 06:54:00+00:00,325.0,4.08,325.0,4.83,12.33,47.59359,-54.27349
2022-10-24 07:04:00+00:00,322.0,4.53,324.0,5.31,12.33,47.59359,-54.27349
2022-10-24 07:14:00+00:00,325.0,5.26,327.0,6.65,12.25,47.59359,-54.27349
2022-10-24 07:24:00+00:00,333.0,5.32,335.0,6.18,12.25,47.59359,-54.27349
2022-10-24 07:34:00+00:00,336.0,6.06,331.0,6.88,12.25,47.59359,-54.27349
2022-10-24 07:44:00+00:00,337.0,7.12,338.0,7.88,12.25,47.59359,-54.27349
2022-10-24 07:54:00+00:00,331.0,6.83,330.0,7.62,12.25,47.59359,-54.27349
2022-10-24 08:04:00+00:00,1.0,3.01,3.0,3.95,12.25,47.59359,-54.27349
2022-10-24 08:14:01+00:00,7.0,2.41,3.0,2.96,12.33,47.59359,-54.27349
2022-10-24 08:24:01+00:00,329.0,4.27,331.0,5.07,12.33,47.59359,-54.27349
2022-10-24 08:34:01+00:00,335.0,6.4,336.0,6.97,12.33,47.59359,-54.27349
2022-10-24 08:44:01+00:00,340.0,4.3,342.0,4.9,12.33,47.59359,-54.27349
2022-10-24 08:54:01+00:00,339.0,3.03,340.0,3.58,12.33,47.59359,-54.27349
2022-10-24 09:04:01+00:00,328.0,3.3,324.0,4.09,12.33,47.59359,-54.27349
2022-10-24 09:14:01+00:00,337.0,3.9,339.0,4.3,12.25,47.59359,-54.27349
2022-10-24 09:24:01+00:00,8.0,1.95,5.0,2.4,12.25,47.59359,-54.27349
2022-10-24 09:34:01+00:00,40.0,1.16,43.0,1.47,12.25,47.59359,-54.27349
2022-10-24 09:44:01+00:00,24.0,1.83,20.0,2.2,12.25,47.59359,-54.27349
2022-10-24 09:54:01+00:00,33.0,3.38,36.0,3.93,12.25,47.59359,-54.27349
2022-10-24 10:04:01+00:00,19.0,3.43,21.0,3.94,12.25,47.59359,-54.27349
2022-10-24 10:14:01+00:00,24.0,4.01,26.0,4.48,12.25,47.59359,-54.27349
2022-10-24 10:24:01+00:00,4.0,2.95,355.0,3.34,12.25,47.59359,-54.27349
2022-10-24 10:34:01+00:00,11.0,3.61,15.0,4.33,12.25,47.59359,-54.27349
2022-10-24 10:44:01+00:00,2.0,3.56,4.0,3.93,12.25,47.59359,-54.27349
2022-10-24 10:54:01+00:00,0.0,2.76,350.0,3.18,12.25,47.59359,-54.27349
2022-10-24 11:04:01+00:00,1.0,2.41,6.0,2.94,12.25,47.59359,-54.27349
2022-10-24 11:14:00+00:00,344.0,1.87,353.0,2.47,13.76,47.59359,-54.27349
2022-10-24 11:24:00+00:00,340.0,1.87,345.0,2.21,13.76,47.59359,-54.27349
2022-10-24 11:34:00+00:00,291.0,1.32,292.0,1.81,13.76,47.59359,-54.27349
2022-10-24 11:44:00+00:00,275.0,2.14,265.0,2.56,13.76,47.59359,-54.27349
2022-10-24 11:54:00+00:00,273.0,2.75,268.0,3.14,13.76,47.59359,-54.27349
2022-10-24 12:04:00+00:00,259.0,2.95,259.0,3.2,13.76,47.59359,-54.27349
2022-10-24 12:14:00+00:00,250.0,2.79,249.0,3.11,13.68,47.59359,-54.27349
2022-10-24 12:24:00+00:00,281.0,3.0,279.0,3.53,13.68,47.59359,-54.27349
2022-10-24 12:34:00+00:00,288.0,3.17,288.0,3.49,13.68,47.59359,-54.27349
2022-10-24 12:44:00+00:00,287.0,2.02,290.0,2.35,13.68,47.59359,-54.27349
2022-10-24 12:54:00+00:00,295.0,0.97,306.0,1.27,13.68,47.59359,-54.27349
2022-10-24 13:04:00+00:00,285.0,1.52,289.0,1.79,13.68,47.59359,-54.27349
2022-10-24 13:14:00+00:00,273.0,1.92,277.0,2.17,13.76,47.59359,-54.27349
2022-10-24 13:24:00+00:00,249.0,1.46,250.0,1.67,13.76,47.59359,-54.27349
2022-10-24 13:34:00+00:00,246.0,1.83,250.0,2.19,13.76,47.59359,-54.27349
2022-10-24 13:44:00+00:00,267.0,2.8,266.0,3.0,13.76,47.59359,-54.27349
2022-10-24 13:54:00+00:00,278.0,2.54,282.0,2.88,13.76,47.59359,-54.27349
2022-10-24 14:04:00+00:00,281.0,1.74,299.0,2.66,13.76,47.59359,-54.27349
2022-10-24 14:14:01+00:00,310.0,0.73,305.0,1.1,14.0,47.59359,-54.27349
2022-10-24 14:24:01+00:00,32.0,0.33,355.0,0.78,14.0,47.59359,-54.27349
2022-10-24 14:34:01+00:00,194.0,0.62,198.0,0.89,14.0,47.59359,-54.27349
2022-10-24 14:44:01+00:00,219.0,1.73,218.0,2.07,14.0,47.59359,-54.27349
2022-10-24 14:54:01+00:00,255.0,0.71,261.0,0.84,14.0,47.59359,-54.27349
2022-10-24 15:04:01+00:00,233.0,1.64,230.0,1.9,14.0,47.59359,-54.27349
2022-10-24 15:14:01+00:00,240.0,1.84,245.0,2.1,14.24,47.59359,-54.27349
2022-10-24 15:24:01+00:00,217.0,2.01,216.0,2.27,14.24,47.59359,-54.27349
2022-10-24 15:34:01+00:00,213.0,2.02,216.0,2.23,14.24,47.59359,-54.27349
2022-10-24 15:44:01+00:00,207.0,2.64,209.0,2.84,14.24,47.59359,-54.27349
2022-10-24 15:54:01+00:00,212.0,2.51,213.0,2.73,14.24,47.59359,-54.27349
2022-10-24 16:04:01+00:00,203.0,2.84,200.0,3.2,14.24,47.59359,-54.27349
2022-10-24 16:14:00+00:00,208.0,3.12,209.0,3.37,13.92,47.59359,-54.27349
2022-10-24 16:24:00+00:00,204.0,3.13,202.0,3.52,13.92,47.59359,-54.27349
2022-10-24 16:34:00+00:00,200.0,2.92,200.0,3.23,13.92,47.59359,-54.27349
2022-10-24 16:44:00+00:00,212.0,2.99,210.0,3.23,13.92,47.59359,-54.27349
2022-10-24 16:54:00+00:00,204.0,2.04,200.0,2.26,13.92,47.59359,-54.27349
2022-10-24 17:04:00+00:00,210.0,2.54,210.0,2.75,13.92,47.59359,-54.27349
2022-10-24 17:14:00+00:00,199.0,1.85,197.0,2.08,14.08,47.59359,-54.27349
2022-10-24 17:24:00+00:00,207.0,2.9,207.0,3.31,14.08,47.59359,-54.27349
2022-10-24 17:34:00+00:00,217.0,2.7,218.0,3.0,14.08,47.59359,-54.27349
2022-10-24 17:44:00+00:00,219.0,2.94,221.0,3.28,14.08,47.59359,-54.27349
2022-10-24 17:54:00+00:00,230.0,2.59,232.0,2.87,14.08,47.59359,-54.27349
2022-10-24 18:04:00+00:00,228.0,2.67,228.0,3.34,14.08,47.59359,-54.27349
2022-10-24 18:14:01+00:00,245.0,2.72,260.0,3.39,13.76,47.59359,-54.27349
2022-10-24 18:24:01+00:00,296.0,3.22,298.0,3.61,13.76,47.59359,-54.27349
2022-10-24 18:34:01+00:00,285.0,3.53,289.0,3.88,13.76,47.59359,-54.27349
2022-10-24 18:44:01+00:00,293.0,4.44,295.0,4.82,13.76,47.59359,-54.27349
2022-10-24 18:54:01+00:00,286.0,3.36,282.0,3.68,13.76,47.59359,-54.27349
2022-10-24 19:04:01+00:00,287.0,3.53,294.0,4.14,13.76,47.59359,-54.27349
2022-10-24 19:14:00+00:00,287.0,3.84,287.0,4.17,13.68,47.59359,-54.27349
2022-10-24 19:24:00+00:00,220.0,2.94,224.0,3.34,13.68,47.59359,-54.27349
2022-10-24 19:34:00+00:00,219.0,2.95,218.0,3.35,13.68,47.59359,-54.27349
2022-10-24 19:44:00+00:00,237.0,2.46,242.0,2.71,13.68,47.59359,-54.27349
2022-10-24 19:54:00+00:00,255.0,2.18,255.0,2.56,13.68,47.59359,-54.27349
2022-10-24 20:04:00+00:00,277.0,2.23,280.0,2.57,13.68,47.59359,-54.27349
2022-10-24 20:14:01+00:00,272.0,2.65,271.0,2.78,13.21,47.59359,-54.27349
2022-10-24 20:24:01+00:00,277.0,3.38,279.0,3.53,13.21,47.59359,-54.27349
2022-10-24 20:34:01+00:00,280.0,3.47,282.0,3.57,13.21,47.59359,-54.27349
2022-10-24 20:44:01+00:00,286.0,2.76,284.0,2.98,13.21,47.59359,-54.27349
2022-10-24 20:54:01+00:00,286.0,2.45,290.0,2.76,13.21,47.59359,-54.27349
2022-10-24 21:04:01+00:00,282.0,3.35,286.0,3.7,13.21,47.59359,-54.27349
2022-10-24 21:14:00+00:00,276.0,4.03,274.0,4.41,12.65,47.59359,-54.27349
2022-10-24 21:24:00+00:00,283.0,4.05,283.0,4.53,12.65,47.59359,-54.27349
2022-10-24 21:34:00+00:00,285.0,2.82,286.0,3.15,12.65,47.59359,-54.27349
2022-10-24 21:44:00+00:00,289.0,2.99,292.0,3.39,12.65,47.59359,-54.27349
2022-10-24 21:54:00+00:00,289.0,3.28,286.0,3.79,12.65,47.59359,-54.27349
2022-10-24 22:04:00+00:00,282.0,2.83,282.0,3.14,12.65,47.59359,-54.27349
2022-10-24 22:14:00+00:00,283.0,2.4,286.0,2.93,12.49,47.59359,-54.27349
2022-10-24 22:24:00+00:00,195.0,1.27,193.0,1.8,12.49,47.59359,-54.27349
2022-10-24 22:34:00+00:00,208.0,1.16,206.0,1.35,12.49,47.59359,-54.27349
2022-10-24 22:44:00+00:00,237.0,0.59,226.0,0.75,12.49,47.59359,-54.27349
2022-10-24 22:54:00+00:00,219.0,1.17,220.0,1.48,12.49,47.59359,-54.27349
2022-10-24 23:04:00+00:00,230.0,0.76,226.0,0.98,12.49,47.59359,-54.27349
2022-10-24 23:14:00+00:00,50.0,0.45,41.0,0.63,12.49,47.59359,-54.27349
2022-10-24 23:24:00+00:00,76.0,0.9,75.0,1.14,12.49,47.59359,-54.27349
2022-10-24 23:34:00+00:00,304.0,0.23,341.0,0.46,12.49,47.59359,-54.27349
2022-10-24 23:44:00+00:00,259.0,1.66,272.0,2.1,12.49,47.59359,-54.27349
2022-10-24 23:54:00+00:00,212.0,0.8,207.0,0.93,12.49,47.59359,-54.27349
